Location: Burbank
(38.7788°N, 114.0429°W)
Time: 00:37:01
(UTC+00:00)

Vanguard 3 - All Passes

Search period start: 12 May 2026 00:00
Search period end: 22 May 2026 00:00
Orbit: 507 x 3204 km, 33.4° (Epoch: 11 May)

Date Brightness Start Highest point End Pass type
(mag) Time Alt. Az. Time Alt. Az. Time Alt. Az.
12 May - 00:02:19 10° WSW 00:21:29 72° S 00:34:14 10° E daylight
12 May - 02:19:18 10° W 02:35:24 59° SSW 02:44:53 10° SE daylight
12 May - 04:37:12 10° W 04:46:27 25° SW 04:52:42 10° S visible
12 May - 18:18:10 10° SSE 18:28:27 18° SE 18:39:28 10° E daylight
12 May - 20:24:36 10° SSW 20:41:40 45° SSE 20:58:12 10° E daylight
12 May - 22:37:20 10° WSW 22:56:49 68° SSE 23:11:52 10° E daylight
13 May - 00:53:23 10° W 01:11:54 70° S 01:23:37 10° ESE daylight
13 May - 03:10:43 10° W 03:24:46 44° SSW 03:33:17 10° SE visible
13 May - 05:31:46 10° WSW 05:34:36 11° SW 05:37:06 10° SW visible
13 May - 19:03:28 10° SSW 19:17:41 31° SE 19:33:06 10° E daylight
13 May - 21:13:29 10° SW 21:31:56 59° SSE 21:48:44 10° E daylight
13 May - 23:27:54 10° WSW 23:47:30 73° S 00:01:38 10° E daylight
14 May - 01:44:38 10° W 02:01:59 61° SSW 02:12:39 10° ESE daylight
14 May - 04:02:38 10° W 04:13:31 27° SW 04:20:46 10° S visible
14 May - 17:45:01 10° SSE 17:54:33 18° SE 18:05:12 10° E daylight
14 May - 19:51:01 10° SSW 20:07:22 46° SSE 20:24:37 10° E daylight
14 May - 22:03:16 10° WSW 22:22:32 69° SSE 22:38:53 10° E daylight
15 May - 00:18:51 10° W 00:38:05 71° S 00:51:09 10° ESE daylight
15 May - 02:36:02 10° W 02:51:30 46° SSW 03:01:08 10° SE daylight
15 May - 04:56:34 10° WSW 05:01:44 14° SW 05:05:58 10° SSW visible
15 May - 18:30:13 10° SSW 18:43:35 31° SE 18:59:03 10° E daylight
15 May - 20:39:47 10° SW 20:57:33 59° SSE 21:15:20 10° E daylight
15 May - 22:53:40 10° WSW 23:13:20 74° S 23:28:48 10° E daylight
16 May - 01:10:00 10° W 01:28:20 62° SSW 01:40:17 10° ESE daylight
16 May - 03:27:57 10° W 03:40:23 30° SW 03:48:43 10° SSE visible
16 May - 17:12:08 10° SSE 17:20:44 17° SE 17:30:40 10° E daylight
16 May - 19:17:41 10° SSW 19:33:05 45° SSE 19:50:45 10° E daylight
16 May - 21:29:25 10° WSW 21:48:10 69° SSE 22:05:40 10° E daylight
16 May - 23:44:28 10° W 00:04:04 72° S 00:18:28 10° ESE daylight
17 May - 02:01:21 10° W 02:18:01 48° SSW 02:28:52 10° SE daylight
17 May - 04:21:36 10° W 04:28:42 16° SW 04:34:19 10° SSW visible
17 May - 17:57:12 10° S 18:09:34 30° SE 18:24:46 10° E daylight
17 May - 20:06:21 10° SW 20:23:10 59° SSE 20:41:40 10° E daylight
17 May - 22:19:39 10° WSW 22:39:01 74° S 22:55:46 10° E daylight
18 May - 00:35:29 10° W 00:54:28 63° SSW 01:07:44 10° ESE daylight
18 May - 02:53:13 10° W 03:07:03 32° SW 03:16:31 10° SSE visible
18 May - 16:39:33 10° SSE 16:47:03 16° SE 16:55:54 10° E daylight
18 May - 18:44:36 10° SSW 18:58:53 45° SE 19:16:40 10° E daylight
18 May - 20:55:50 10° WSW 21:13:44 69° SSE 21:32:11 10° E daylight
18 May - 23:10:17 10° W 23:29:51 72° S 23:45:35 10° ESE daylight
19 May - 01:26:44 10° W 01:44:19 49° SSW 01:56:24 10° SE daylight
19 May - 03:46:41 10° W 03:55:30 18° SW 04:02:22 10° SSW visible
19 May - 17:24:27 10° S 17:35:41 29° SE 17:50:17 10° E daylight
19 May - 19:33:09 10° SW 19:48:50 59° SSE 20:07:44 10° E daylight
19 May - 21:45:53 10° WSW 22:04:36 74° S 22:22:29 10° E daylight
20 May - 00:01:07 10° W 00:20:24 64° SSW 00:34:59 10° ESE daylight
20 May - 02:18:31 10° W 02:33:31 34° SW 02:44:08 10° SSE daylight
20 May - 16:07:16 10° SSE 16:13:31 15° SE 16:20:54 10° E daylight
20 May - 18:11:44 10° SSW 18:24:50 44° SE 18:42:20 10° E daylight
20 May - 20:22:29 10° WSW 20:39:19 69° SSE 20:58:27 10° E daylight
20 May - 22:36:19 10° W 22:55:31 72° S 23:12:28 10° ESE daylight
21 May - 00:52:14 10° W 01:10:24 50° SSW 01:23:45 10° SE daylight
21 May - 03:11:47 10° W 03:22:07 20° SW 03:30:11 10° S visible
21 May - 16:51:52 10° S 17:01:58 28° SE 17:15:38 10° E daylight
21 May - 19:00:11 10° SW 19:14:37 59° SSE 19:33:34 10° E daylight
21 May - 21:12:22 10° WSW 21:30:10 74° S 21:48:56 10° E daylight
